Time,TemperatureF,DewpointF,PressureIn,WindDirection,WindDirectionDegrees,WindSpeedMPH,WindSpeedGustMPH,Humidity,HourlyPrecipIn,Conditions,Clouds,dailyrainin,SoftwareType,DateUTC
2013-06-15 00:08:00,60.3,59.0,30.02,NW,323,0.0,0.0,94,0.00,,,0.00,weatherlink.com 1.10,2013-06-15 04:08:00,
2013-06-15 00:23:00,60.3,59.0,30.03,NW,323,0.0,1.0,95,0.00,,,0.00,weatherlink.com 1.10,2013-06-15 04:23:00,
2013-06-15 00:39:00,60.1,59.0,30.03,NW,323,0.0,0.0,95,0.00,,,0.00,weatherlink.com 1.10,2013-06-15 04:39:00,
2013-06-15 00:54:00,59.8,58.0,30.03,NW,323,0.0,0.0,95,0.00,,,0.00,weatherlink.com 1.10,2013-06-15 04:54:00,
2013-06-15 01:09:00,59.6,58.0,30.04,NW,323,0.0,0.0,95,0.00,,,0.00,weatherlink.com 1.10,2013-06-15 05:09:00,
2013-06-15 01:24:00,59.3,58.0,30.04,NW,323,0.0,0.0,95,0.00,,,0.00,weatherlink.com 1.10,2013-06-15 05:24:00,
2013-06-15 01:39:00,58.8,57.0,30.04,NW,323,0.0,0.0,95,0.00,,,0.00,weatherlink.com 1.10,2013-06-15 05:39:00,
2013-06-15 01:54:00,58.7,57.0,30.04,NW,323,0.0,0.0,95,0.00,,,0.00,weatherlink.com 1.10,2013-06-15 05:54:00,
2013-06-15 02:09:00,58.6,57.0,30.04,NW,323,0.0,0.0,95,0.00,,,0.00,weatherlink.com 1.10,2013-06-15 06:09:00,
2013-06-15 02:24:00,58.2,57.0,30.04,NW,323,0.0,0.0,95,0.00,,,0.00,weatherlink.com 1.10,2013-06-15 06:24:00,
2013-06-15 02:39:00,58.0,57.0,30.05,NW,323,0.0,0.0,95,0.00,,,0.00,weatherlink.com 1.10,2013-06-15 06:39:00,
2013-06-15 02:54:00,57.9,57.0,30.04,NW,323,0.0,1.0,95,0.00,,,0.00,weatherlink.com 1.10,2013-06-15 06:54:00,
2013-06-15 03:09:00,57.8,56.0,30.04,NW,323,0.0,0.0,95,0.00,,,0.00,weatherlink.com 1.10,2013-06-15 07:09:00,
2013-06-15 03:24:00,57.4,56.0,30.04,NW,323,0.0,0.0,95,0.00,,,0.00,weatherlink.com 1.10,2013-06-15 07:24:00,
2013-06-15 03:39:00,56.9,56.0,30.04,NW,323,0.0,0.0,95,0.00,,,0.00,weatherlink.com 1.10,2013-06-15 07:39:00,
2013-06-15 03:54:00,56.8,55.0,30.04,NW,323,0.0,0.0,95,0.00,,,0.00,weatherlink.com 1.10,2013-06-15 07:54:00,
2013-06-15 04:09:00,56.7,55.0,30.04,NW,323,0.0,0.0,95,0.00,,,0.00,weatherlink.com 1.10,2013-06-15 08:09:00,
2013-06-15 04:24:00,56.2,55.0,30.04,NW,323,0.0,0.0,95,0.00,,,0.00,weatherlink.com 1.10,2013-06-15 08:24:00,
2013-06-15 04:39:00,56.3,55.0,30.04,NW,323,0.0,0.0,96,0.00,,,0.00,weatherlink.com 1.10,2013-06-15 08:39:00,
2013-06-15 04:54:00,56.0,55.0,30.04,NW,323,0.0,0.0,96,0.00,,,0.00,weatherlink.com 1.10,2013-06-15 08:54:00,
2013-06-15 05:09:00,55.4,54.0,30.04,NW,323,0.0,0.0,95,0.00,,,0.00,weatherlink.com 1.10,2013-06-15 09:09:00,
2013-06-15 05:24:00,55.4,54.0,30.05,NW,323,0.0,0.0,96,0.00,,,0.00,weatherlink.com 1.10,2013-06-15 09:24:00,
2013-06-15 05:39:00,55.1,54.0,30.05,NW,323,0.0,0.0,95,0.00,,,0.00,weatherlink.com 1.10,2013-06-15 09:39:00,
2013-06-15 05:54:00,55.0,54.0,30.07,NW,323,0.0,0.0,96,0.00,,,0.00,weatherlink.com 1.10,2013-06-15 09:54:00,
2013-06-15 06:10:00,54.8,54.0,30.08,NW,323,0.0,0.0,96,0.00,,,0.00,weatherlink.com 1.10,2013-06-15 10:10:00,
2013-06-15 06:24:00,54.9,54.0,30.08,NW,323,0.0,1.0,96,0.00,,,0.00,weatherlink.com 1.10,2013-06-15 10:24:00,
2013-06-15 06:39:00,55.4,54.0,30.09,NW,323,0.0,0.0,96,0.00,,,0.00,weatherlink.com 1.10,2013-06-15 10:39:00,
2013-06-15 06:54:00,56.5,55.0,30.10,NW,323,1.0,2.0,96,0.00,,,0.00,weatherlink.com 1.10,2013-06-15 10:54:00,
2013-06-15 07:09:00,58.3,57.0,30.10,NW,323,0.0,0.0,96,0.00,,,0.00,weatherlink.com 1.10,2013-06-15 11:09:00,
2013-06-15 07:24:00,59.2,58.0,30.10,NW,323,0.0,2.0,96,0.00,,,0.00,weatherlink.com 1.10,2013-06-15 11:24:00,
2013-06-15 07:39:00,61.1,60.0,30.10,NW,323,0.0,2.0,96,0.00,,,0.00,weatherlink.com 1.10,2013-06-15 11:39:00,
2013-06-15 07:54:00,62.7,61.0,30.10,SW,224,2.0,3.0,95,0.00,,,0.00,weatherlink.com 1.10,2013-06-15 11:54:00,
2013-06-15 08:09:00,64.6,63.0,30.10,SSE,160,2.0,3.0,93,0.00,,,0.00,weatherlink.com 1.10,2013-06-15 12:09:00,
2013-06-15 08:24:00,65.6,63.0,30.11,SSE,163,0.0,2.0,90,0.00,,,0.00,weatherlink.com 1.10,2013-06-15 12:24:00,
2013-06-15 08:40:00,67.6,64.0,30.12,SSE,156,1.0,3.0,88,0.00,,,0.00,weatherlink.com 1.10,2013-06-15 12:40:00,
2013-06-15 08:55:00,68.4,64.0,30.12,South,172,0.0,3.0,85,0.00,,,0.00,weatherlink.com 1.10,2013-06-15 12:55:00,
2013-06-15 09:10:00,70.0,65.0,30.12,SE,139,0.0,3.0,83,0.00,,,0.00,weatherlink.com 1.10,2013-06-15 13:10:00,
2013-06-15 09:25:00,71.6,65.0,30.13,WNW,300,0.0,4.0,79,0.00,,,0.00,weatherlink.com 1.10,2013-06-15 13:25:00,
2013-06-15 09:40:00,72.8,64.0,30.13,SW,227,0.0,4.0,75,0.00,,,0.00,weatherlink.com 1.10,2013-06-15 13:40:00,
2013-06-15 09:55:00,73.9,66.0,30.12,SW,234,0.0,3.0,75,0.00,,,0.00,weatherlink.com 1.10,2013-06-15 13:55:00,
2013-06-15 10:10:00,75.2,65.0,30.12,WSW,245,1.0,2.0,71,0.00,,,0.00,weatherlink.com 1.10,2013-06-15 14:10:00,
2013-06-15 10:25:00,76.0,66.0,30.11,SE,125,2.0,4.0,71,0.00,,,0.00,weatherlink.com 1.10,2013-06-15 14:25:00,
2013-06-15 10:40:00,76.4,64.0,30.11,SW,215,1.0,8.0,66,0.00,,,0.00,weatherlink.com 1.10,2013-06-15 14:40:00,
2013-06-15 10:55:00,77.6,66.0,30.11,WSW,242,0.0,4.0,68,0.00,,,0.00,weatherlink.com 1.10,2013-06-15 14:55:00,
2013-06-15 11:10:00,78.2,65.0,30.11,South,179,3.0,6.0,63,0.00,,,0.00,weatherlink.com 1.10,2013-06-15 15:10:00,
2013-06-15 11:40:00,78.3,63.0,30.10,WSW,252,2.0,10.0,59,0.00,,,0.00,weatherlink.com 1.10,2013-06-15 15:40:00,
2013-06-15 11:55:00,78.8,64.0,30.10,SSE,158,6.0,10.0,61,0.00,,,0.00,weatherlink.com 1.10,2013-06-15 15:55:00,
2013-06-15 12:10:00,78.9,64.0,30.10,SSE,154,3.0,9.0,61,0.00,,,0.00,weatherlink.com 1.10,2013-06-15 16:10:00,
2013-06-15 12:25:00,79.1,63.0,30.09,South,169,6.0,7.0,59,0.00,,,0.00,weatherlink.com 1.10,2013-06-15 16:25:00,
2013-06-15 12:40:00,80.1,61.0,30.09,SSE,165,0.0,7.0,53,0.00,,,0.00,weatherlink.com 1.10,2013-06-15 16:40:00,
2013-06-15 12:55:00,81.2,62.0,30.09,WSW,238,8.0,9.0,53,0.00,,,0.00,weatherlink.com 1.10,2013-06-15 16:55:00,
2013-06-15 13:10:00,81.8,64.0,30.09,NW,307,5.0,8.0,55,0.00,,,0.00,weatherlink.com 1.10,2013-06-15 17:10:00,
2013-06-15 13:25:00,81.6,64.0,30.08,South,174,3.0,4.0,55,0.00,,,0.00,weatherlink.com 1.10,2013-06-15 17:25:00,
2013-06-15 13:40:00,80.9,64.0,30.08,SW,217,0.0,9.0,56,0.00,,,0.00,weatherlink.com 1.10,2013-06-15 17:40:00,
2013-06-15 13:55:00,80.9,63.0,30.08,West,273,0.0,4.0,54,0.00,,,0.00,weatherlink.com 1.10,2013-06-15 17:55:00,
2013-06-15 14:10:00,80.3,62.0,30.08,NW,311,5.0,6.0,54,0.00,,,0.00,weatherlink.com 1.10,2013-06-15 18:10:00,
2013-06-15 14:25:00,81.5,66.0,30.07,West,265,2.0,3.0,59,0.00,,,0.00,weatherlink.com 1.10,2013-06-15 18:25:00,
2013-06-15 14:40:00,81.5,64.0,30.07,West,274,0.0,5.0,56,0.00,,,0.00,weatherlink.com 1.10,2013-06-15 18:40:00,
2013-06-15 14:55:00,81.4,67.0,30.07,NW,317,2.0,3.0,61,0.00,,,0.00,weatherlink.com 1.10,2013-06-15 18:55:00,
2013-06-15 15:10:00,82.8,63.0,30.06,NNE,16,0.0,3.0,52,0.00,,,0.00,weatherlink.com 1.10,2013-06-15 19:10:00,
2013-06-15 15:25:00,83.1,61.0,30.06,West,270,0.0,4.0,48,0.00,,,0.00,weatherlink.com 1.10,2013-06-15 19:25:00,
2013-06-15 15:41:00,83.8,65.0,30.05,WSW,249,1.0,5.0,53,0.00,,,0.00,weatherlink.com 1.10,2013-06-15 19:41:00,
2013-06-15 15:56:00,83.8,63.0,30.06,NW,307,4.0,7.0,50,0.00,,,0.00,weatherlink.com 1.10,2013-06-15 19:56:00,
2013-06-15 16:11:00,83.8,64.0,30.06,NW,304,1.0,4.0,52,0.00,,,0.00,weatherlink.com 1.10,2013-06-15 20:11:00,
2013-06-15 16:26:00,83.5,66.0,30.06,SSW,193,0.0,2.0,55,0.00,,,0.00,weatherlink.com 1.10,2013-06-15 20:26:00,
2013-06-15 16:41:00,83.8,65.0,30.05,SE,146,3.0,6.0,53,0.00,,,0.00,weatherlink.com 1.10,2013-06-15 20:41:00,
2013-06-15 16:56:00,83.0,65.0,30.05,SSW,210,0.0,1.0,54,0.00,,,0.00,weatherlink.com 1.10,2013-06-15 20:56:00,
2013-06-15 17:11:00,83.4,65.0,30.04,South,184,0.0,3.0,54,0.00,,,0.00,weatherlink.com 1.10,2013-06-15 21:11:00,
2013-06-15 17:26:00,82.8,64.0,30.05,SSW,198,0.0,6.0,53,0.00,,,0.00,weatherlink.com 1.10,2013-06-15 21:26:00,
2013-06-15 17:41:00,83.1,63.0,30.04,SE,136,2.0,5.0,51,0.00,,,0.00,weatherlink.com 1.10,2013-06-15 21:41:00,
2013-06-15 17:56:00,83.4,65.0,30.04,SSE,158,0.0,4.0,54,0.00,,,0.00,weatherlink.com 1.10,2013-06-15 21:56:00,
2013-06-15 18:11:00,82.3,64.0,30.04,South,174,1.0,7.0,54,0.00,,,0.00,weatherlink.com 1.10,2013-06-15 22:11:00,
2013-06-15 18:26:00,82.2,63.0,30.04,South,184,3.0,5.0,53,0.00,,,0.00,weatherlink.com 1.10,2013-06-15 22:26:00,
2013-06-15 18:41:00,81.5,62.0,30.04,SSE,158,2.0,5.0,52,0.00,,,0.00,weatherlink.com 1.10,2013-06-15 22:41:00,
2013-06-15 18:56:00,81.4,64.0,30.04,South,184,1.0,3.0,55,0.00,,,0.00,weatherlink.com 1.10,2013-06-15 22:56:00,
2013-06-15 19:11:00,80.9,65.0,30.04,SSW,212,0.0,4.0,59,0.00,,,0.00,weatherlink.com 1.10,2013-06-15 23:11:00,
2013-06-15 19:26:00,79.9,65.0,30.04,SSW,211,1.0,2.0,61,0.00,,,0.00,weatherlink.com 1.10,2013-06-15 23:26:00,
2013-06-15 19:41:00,78.7,68.0,30.03,SSW,211,0.0,1.0,69,0.00,,,0.00,weatherlink.com 1.10,2013-06-15 23:41:00,
2013-06-15 19:56:00,77.2,68.0,30.04,SSW,211,0.0,0.0,72,0.00,,,0.00,weatherlink.com 1.10,2013-06-15 23:56:00,
2013-06-15 20:11:00,75.8,67.0,30.04,SSW,211,0.0,0.0,74,0.00,,,0.00,weatherlink.com 1.10,2013-06-16 00:11:00,
2013-06-15 20:26:00,73.9,66.0,30.04,SSW,211,0.0,0.0,76,0.00,,,0.00,weatherlink.com 1.10,2013-06-16 00:26:00,
2013-06-15 20:41:00,72.4,67.0,30.04,SSW,211,0.0,0.0,82,0.00,,,0.00,weatherlink.com 1.10,2013-06-16 00:41:00,
2013-06-15 20:56:00,70.9,67.0,30.04,SSW,211,0.0,0.0,86,0.00,,,0.00,weatherlink.com 1.10,2013-06-16 00:56:00,
2013-06-15 21:11:00,69.5,66.0,30.04,SSW,211,0.0,0.0,88,0.00,,,0.00,weatherlink.com 1.10,2013-06-16 01:11:00,
2013-06-15 21:26:00,68.7,65.0,30.04,SSW,211,0.0,0.0,88,0.00,,,0.00,weatherlink.com 1.10,2013-06-16 01:26:00,
2013-06-15 21:41:00,67.8,65.0,30.05,SSW,211,0.0,0.0,90,0.00,,,0.00,weatherlink.com 1.10,2013-06-16 01:41:00,
2013-06-15 21:56:00,67.1,65.0,30.05,SSW,211,0.0,0.0,91,0.00,,,0.00,weatherlink.com 1.10,2013-06-16 01:56:00,
2013-06-15 22:11:00,66.5,64.0,30.05,SSW,211,0.0,0.0,92,0.00,,,0.00,weatherlink.com 1.10,2013-06-16 02:11:00,
2013-06-15 22:26:00,66.0,64.0,30.05,SSW,211,0.0,0.0,92,0.00,,,0.00,weatherlink.com 1.10,2013-06-16 02:26:00,
2013-06-15 22:41:00,65.4,63.0,30.05,SSW,211,0.0,0.0,92,0.00,,,0.00,weatherlink.com 1.10,2013-06-16 02:41:00,
2013-06-15 22:56:00,64.9,63.0,30.06,SSW,211,0.0,0.0,93,0.00,,,0.00,weatherlink.com 1.10,2013-06-16 02:56:00,
2013-06-15 23:11:00,64.5,63.0,30.06,SSW,211,0.0,0.0,93,0.00,,,0.00,weatherlink.com 1.10,2013-06-16 03:11:00,
2013-06-15 23:26:00,64.1,62.0,30.06,SSW,211,0.0,0.0,94,0.00,,,0.00,weatherlink.com 1.10,2013-06-16 03:26:00,
2013-06-15 23:41:00,63.7,62.0,30.06,SSW,211,0.0,0.0,94,0.00,,,0.00,weatherlink.com 1.10,2013-06-16 03:41:00,
2013-06-15 23:56:00,63.5,62.0,30.07,SSW,211,0.0,0.0,94,0.00,,,0.00,weatherlink.com 1.10,2013-06-16 03:56:00,